sat.trackr.live / text

‹ back to catalog

HULIANWANG DIGUI-92

NORAD 66000 · 2025-231F

PAYLOAD ACTIVE UNKNOWN

§ Identity

Operator
Country
PRC
Launch date
2025-10-16
Launch site
WSC
Launch vehicle
Mass (kg)
RCS (m²)

External: N2YO · Heavens-Above · Gunter

§ Orbital elements

Epoch: 2026-09-20T05:36:24.631488Z

Period
108.33 min
Inclination
50.0047°
Eccentricity
0.0000405
Mean motion
13.29327489 rev/d
Perigee alt
1,149.0 km
Apogee alt
1,149.6 km
Semi-major
7,527.4 km
B*
6.0460e-5
RAAN
194.7735°
Arg perigee
60.5132°
Mean anomaly
299.5781°
Rev number
4,553

§ Raw data

HULIANWANG DIGUI-921 66000U 25231F   26263.23361842 -.00000096  00000+0  60460-4 0  99982 66000  50.0047 194.7735 0000405  60.5132 299.5781 13.29327489 45538

JSON: /api/v1/satellites/66000 · /tle

For live sub-satellite position, see the globe view (requires WebGL).

§ Visibility from observer

Set your observer location to see the next 7 days of passes ≥ 10°. The values pass through the URL so the page stays shareable.

No JS? Fill the form by hand. The geolocation button needs JavaScript.